Location: Atlantic Beach
(40.5890°N, 73.7290°W)
Time: 13:43:54
(UTC+00:00)

Aureole 3 - Pass Details

Date: 29 October 2020
Orbit: 382 x 1231 km, 82.5° (Epoch: 01 December)

Event Time Altitude Azimuth Distance (km) Brightness Sun altitude
Rises 22:31:02 0° 179° (S) 2,426 6.8 -7.5°
Reaches altitude 10° 22:33:10 10° 175° (S) 1,490 5.6 -7.9°
Maximum altitude 22:36:15 57° 96° (E) 467 2.6 -8.5°
Drops below altitude 10° 22:39:11 10° 16° (NNE) 1,412 5.2 -9.1°
Sets 22:41:10 0° 12° (NNE) 2,281 6.3 -9.4°
